Location: Ahstedt
(52.2048°N, 10.1060°E)
Time: 19:57:49
(UTC+00:00)

Cosmos 2082 Rocket - Pass Details

Date: 11 April 2026
Orbit: 831 x 853 km, 71.0° (Epoch: 13 May)

Event Time Altitude Azimuth Distance (km) Brightness Sun altitude
Exits shadow 03:39:42 - 230° (SW) 2,543 4.1 -8.3°
Reaches altitude 10° 03:39:53 10° 231° (SW) 2,476 4.0 -8.3°
Maximum altitude 03:45:27 53° 308° (NW) 1,041 2.5 -7.5°
Drops below altitude 10° 03:51:04 10° 25° (NNE) 2,495 5.4 -6.7°
Sets 03:53:37 0° 31° (NNE) 3,435 6.3 -6.4°
